460 visiteurs
Prévisions de votre ville :
Vigilance : 86 départements Mise à jour le 08/12/2019 à 16:17 - Voir la carte

Paris Roissy CDG (95380) le 09/12/2019 à 00:00 Choisir station

8.0°C 69 % OSO Rafales 30 km/h
Vit. moyenne 20 kmh/h

Relevés météo quotidiens pour la station de :

UTC
S: Synop
M: Metar
Loc T°C
(°C)
Td
(°C)
HR
(%)
Vis
(km)
Néb
(octa)
Vent
(km/h)
Pression
(mb)
Précipitations
(mm)
Temps
              MOY
10 min
DIR RAF 1h MESURE VAR SUR 3h    
S 00 h 02h 21.1 17.9 82 15 - - - 9 1019.7 +0.2/3h 0.0/6h - 0.0/3h -
S 01 h 03h 19.3 17.4 89 16 - 2 6 1019.9 +0.1/3h 0.0/1h -
S 02 h 04h 19.4 18.2 93 13 - 2 7 1020.0 +0.1/3h 0.0/1h -
S 03 h 05h 17.7 17.1 96 8 - - - 4 1020.5 +0.4/3h 0.0/3h -
S 04 h 06h 16.9 16.4 97 0.2 - 2 4 1020.9 +0.7/3h 0.0/1h
S 05 h 07h 17.3 17.1 99 6 - 6 11 1020.8 +0.6/3h 0.2/1h -
S 06 h 08h 20.4 19.6 95 8 - - - 9 1020.9 +0.7/3h 0.2/12h - 0.2/3h - 0.2/24h -
S 07 h 09h 25.2 20.7 76 12 - 4 7 1020.8 +0.7/3h 0.0/1h -
S 08 h 10h 28.4 20.9 64 16 - 2 6 1020.5 +0.7/3h 0.0/1h -
S 09 h 11h 30.7 19.7 52 16 - 4 11 1019.9 -0.1/3h 0.0/3h -
S 10 h 12h 32.1 20.4 50 17 - 7 15 1019.8 -0.3/3h 0.0/1h -
S 11 h 13h 34.5 19.3 41 19 - 4 13 1019.1 -0.8/3h 0.0/1h -
S 12 h 14h 36.6 21.2 41 19 - 7 19 1018.3 -1.0/3h 0.0/6h - 0.0/3h -
S 13 h 15h 38.5 19.8 34 19 - 4 9 1017.6 -1.6/3h 0.0/1h -
S 14 h 16h 39.2 18.4 30 17 - 4 9 1017.2 -1.5/3h 0.0/1h -
S 15 h 17h 39.0 19.8 33 19 - 15 22 1016.8 -1.3/3h 0.0/3h -
S 16 h 18h 37.8 19.7 35 19 - 17 24 1016.7 -1.0/3h 0.0/1h -
S 17 h 19h 37.1 17.7 32 19 - 17 24 1016.4 -0.9/3h 0.0/1h -
S 18 h 20h 35.5 20.2 41 19 - 4 11 1016.7 -0.3/3h 0.0/12h - 0.0/3h -
S 19 h 21h 32.6 21.8 53 26 - 4 7 1017.1 0.0/3h 0.0/1h -
S 20 h 22h 28.9 21.4 64 17 - 6 9 1017.7 +0.6/3h 0.0/1h -
S 21 h 23h 27.1 20.9 69 23 - 6 9 1018.5 +1.0/3h 0.0/3h -
S 22 h 00h 25.1 19.9 73 19 - 6 7 1018.9 +1.1/3h 0.0/1h -
S 23 h 01h 22.3 20.0 87 17 - 2 4 1019.1 +0.7/3h 0.0/1h -
evolution des temperatures
cumul des precipitations
vent moyen et rafales
pression atmospherique

Un tiret (-) signifie que les données ne sont pas disponibles.

Passez la souris sur les pictos temps pour avoir plus de précisions. Passez les flèches sur l'icône de la direction du vent pour voir la direction précise en degrés.

Les données de l'heure en cours sont disponibles à partir de H+15 minutes.


S signifie station Synop, plus complète qu'une station Metar (M). Il y a +1h de différence entre l'heure UTC et l'heure légale en hiver et +2h en été.

Td est la mesure du point de rosée.

HR est l'humidité relative/p>

Vis est la visibilité

Néb est la nébulosité du ciel (couverture nuageuse) exprimée en octas (de 0/8 à 8/8).

Vent moy 10 min donne le vent moyen sur les 10 minutes qui précèdent le relevé.

Vent raf 1h donne la rafale maximale mesurée dans l'heure qui précède le relevé.


Les données les plus anciennes remontent à avril 2014.

Les données présentées sur cette page proviennent des stations météo officielles. Les relevés sont effectués aux normes en vigueur (anémomètre à 10m de haut, thermomètre sous abri normalisé à 2m du sol...)

Météo 60 décline toute responsabilité en cas d'absence de données, d'erreurs, de mauvaise utilisation ou interprétation et n'est pas habilité à fournir des certificats intempéries.